Time,TemperatureF,DewpointF,PressureIn,WindDirection,WindDirectionDegrees,WindSpeedMPH,WindSpeedGustMPH,Humidity,HourlyPrecipIn,Conditions,Clouds,dailyrainin,SolarRadiationWatts/m^2,SoftwareType,DateUTC
2013-09-04 00:02:00,55.0,50.0,-100.00,East,84,0.0,9.0,83,0.00,,,0.00,0.000000,,2013-09-04 07:02:00,
2013-09-04 00:42:00,56.0,50.0,-100.00,ENE,70,0.0,5.0,81,0.00,,,0.00,0.000000,,2013-09-04 07:42:00,
2013-09-04 00:52:00,56.0,50.0,-100.00,ENE,70,0.0,5.0,81,0.00,,,0.00,0.000000,,2013-09-04 07:52:00,
2013-09-04 01:02:00,56.0,50.0,-100.00,ENE,70,0.0,5.0,81,0.00,,,0.00,0.000000,,2013-09-04 08:02:00,
2013-09-04 01:43:00,57.0,48.0,-100.00,ESE,108,0.0,5.0,71,0.00,,,-99.99,0.000000,,2013-09-04 08:43:00,
2013-09-04 01:52:00,57.0,48.0,-100.00,ESE,108,0.0,5.0,71,0.00,,,-99.99,0.000000,,2013-09-04 08:52:00,
2013-09-04 02:01:00,57.0,48.0,-100.00,ESE,108,0.0,5.0,71,0.00,,,-99.99,0.000000,,2013-09-04 09:01:00,
2013-09-04 02:43:00,59.0,49.0,-100.00,NE,41,0.0,0.0,70,0.00,,,0.00,0.000000,,2013-09-04 09:43:00,
2013-09-04 02:53:00,59.0,49.0,-100.00,NE,41,0.0,0.0,70,0.00,,,0.00,0.000000,,2013-09-04 09:53:00,
2013-09-04 03:03:00,59.0,49.0,-100.00,NE,41,0.0,0.0,70,0.00,,,0.00,0.000000,,2013-09-04 10:03:00,
2013-09-04 03:42:00,57.0,49.0,-100.00,WNW,295,0.0,5.0,74,0.00,,,0.00,0.000000,,2013-09-04 10:42:00,
2013-09-04 03:52:00,57.0,49.0,-100.00,WNW,295,0.0,5.0,74,0.00,,,0.00,0.000000,,2013-09-04 10:52:00,
2013-09-04 04:02:00,57.0,49.0,-100.00,WNW,295,0.0,5.0,74,0.00,,,0.00,0.000000,,2013-09-04 11:02:00,
2013-09-04 04:42:00,60.0,49.0,-100.00,ENE,76,0.0,6.0,67,0.00,,,0.00,0.000000,,2013-09-04 11:42:00,
2013-09-04 04:52:00,60.0,49.0,-100.00,ENE,76,0.0,6.0,67,0.00,,,0.00,0.000000,,2013-09-04 11:52:00,
2013-09-04 05:01:00,60.0,49.0,-100.00,ENE,76,0.0,6.0,67,0.00,,,0.00,0.000000,,2013-09-04 12:01:00,
2013-09-04 05:42:00,60.0,49.0,-100.00,ENE,72,0.0,5.0,66,0.00,,,0.00,1.000000,,2013-09-04 12:42:00,
2013-09-04 05:52:00,60.0,49.0,-100.00,ENE,72,0.0,5.0,66,0.00,,,0.00,1.000000,,2013-09-04 12:52:00,
2013-09-04 06:01:00,60.0,49.0,-100.00,ENE,72,0.0,5.0,66,0.00,,,0.00,1.000000,,2013-09-04 13:01:00,
2013-09-04 06:42:00,58.0,47.0,-100.00,ENE,69,0.0,2.0,66,0.00,,,0.00,0.000000,,2013-09-04 13:42:00,
2013-09-04 06:52:00,58.0,47.0,-100.00,ENE,69,0.0,2.0,66,0.00,,,0.00,0.000000,,2013-09-04 13:52:00,
2013-09-04 07:01:00,58.0,47.0,-100.00,ENE,69,0.0,2.0,66,0.00,,,0.00,0.000000,,2013-09-04 14:01:00,
2013-09-04 07:42:00,57.0,45.0,-100.00,East,83,0.0,5.0,65,0.00,,,0.00,50.000000,,2013-09-04 14:42:00,
2013-09-04 07:52:00,57.0,45.0,-100.00,East,83,0.0,5.0,65,0.00,,,0.00,50.000000,,2013-09-04 14:52:00,
2013-09-04 08:02:00,57.0,45.0,-100.00,East,83,0.0,5.0,65,0.00,,,0.00,50.000000,,2013-09-04 15:02:00,
2013-09-04 11:42:00,73.0,49.0,-100.00,SW,219,4.0,9.0,42,-99.99,,,-99.99,862.000000,,2013-09-04 18:42:00,
2013-09-04 11:52:00,73.0,49.0,-100.00,SW,219,4.0,9.0,42,-99.99,,,-99.99,862.000000,,2013-09-04 18:52:00,
2013-09-04 12:02:00,73.0,49.0,-100.00,SW,219,4.0,9.0,42,-99.99,,,-99.99,862.000000,,2013-09-04 19:02:00,
2013-09-04 13:43:00,77.0,49.0,-100.00,West,275,1.0,9.0,38,-99.99,,,0.00,439.000000,,2013-09-04 20:43:00,
2013-09-04 14:44:00,74.0,52.0,-100.00,SW,217,0.0,7.0,46,0.00,,,0.00,346.000000,,2013-09-04 21:44:00,
2013-09-04 14:54:00,74.0,52.0,-100.00,SW,217,0.0,7.0,46,0.00,,,0.00,346.000000,,2013-09-04 21:54:00,
2013-09-04 15:04:00,74.0,52.0,-100.00,SW,217,0.0,7.0,46,0.00,,,0.00,346.000000,,2013-09-04 22:04:00,
2013-09-04 15:43:00,80.0,52.0,-100.00,NNW,328,2.0,6.0,38,0.00,,,0.00,1001.000000,,2013-09-04 22:43:00,
2013-09-04 15:54:00,80.0,52.0,-100.00,NNW,328,2.0,6.0,38,0.00,,,0.00,1001.000000,,2013-09-04 22:54:00,
2013-09-04 16:03:00,80.0,52.0,-100.00,NNW,328,2.0,6.0,38,0.00,,,0.00,1001.000000,,2013-09-04 23:03:00,
2013-09-04 16:42:00,79.0,50.0,-100.00,SSE,166,3.0,10.0,37,0.00,,,0.00,755.000000,,2013-09-04 23:42:00,
2013-09-04 17:43:00,72.0,52.0,-100.00,NE,50,5.0,13.0,49,-99.99,,,0.00,407.000000,,2013-09-05 00:43:00,
2013-09-04 17:52:00,72.0,52.0,-100.00,NE,50,5.0,13.0,49,-99.99,,,0.00,407.000000,,2013-09-05 00:52:00,
2013-09-04 18:01:00,72.0,52.0,-100.00,NE,50,5.0,13.0,49,-99.99,,,0.00,407.000000,,2013-09-05 01:01:00,
2013-09-04 18:42:00,67.0,52.0,-100.00,NE,53,4.0,13.0,59,-99.99,,,0.00,50.000000,,2013-09-05 01:42:00,
2013-09-04 18:52:00,67.0,52.0,-100.00,NE,53,4.0,13.0,59,-99.99,,,0.00,50.000000,,2013-09-05 01:52:00,
2013-09-04 19:02:00,67.0,52.0,-100.00,NE,53,4.0,13.0,59,-99.99,,,0.00,50.000000,,2013-09-05 02:02:00,
2013-09-04 19:52:00,60.0,49.0,-100.00,East,83,4.0,12.0,67,0.00,,,0.00,12.000000,,2013-09-05 02:52:00,
2013-09-04 20:02:00,60.0,49.0,-100.00,East,83,4.0,12.0,67,0.00,,,0.00,12.000000,,2013-09-05 03:02:00,
2013-09-04 20:45:00,58.0,51.0,-100.00,NNE,20,3.0,13.0,77,0.00,,,0.00,0.000000,,2013-09-05 03:45:00,
2013-09-04 20:54:00,58.0,51.0,-100.00,NNE,20,3.0,13.0,77,0.00,,,0.00,0.000000,,2013-09-05 03:54:00,
2013-09-04 21:04:00,58.0,51.0,-100.00,NNE,20,3.0,13.0,77,0.00,,,0.00,0.000000,,2013-09-05 04:04:00,
2013-09-04 21:44:00,57.0,50.0,-100.00,NE,48,1.0,10.0,78,0.00,,,0.00,0.000000,,2013-09-05 04:44:00,
2013-09-04 21:53:00,57.0,50.0,-100.00,NE,48,1.0,10.0,78,0.00,,,0.00,0.000000,,2013-09-05 04:53:00,
2013-09-04 22:03:00,57.0,50.0,-100.00,NE,48,1.0,10.0,78,0.00,,,0.00,0.000000,,2013-09-05 05:03:00,
2013-09-04 22:43:00,60.0,50.0,-100.00,ENE,66,4.0,8.0,69,0.00,,,0.00,0.000000,,2013-09-05 05:43:00,
2013-09-04 22:52:00,60.0,50.0,-100.00,ENE,66,4.0,8.0,69,0.00,,,0.00,0.000000,,2013-09-05 05:52:00,
2013-09-04 23:01:00,60.0,50.0,-100.00,ENE,66,4.0,8.0,69,0.00,,,0.00,0.000000,,2013-09-05 06:01:00,
2013-09-04 23:42:00,61.0,49.0,-100.00,NE,43,3.0,10.0,64,0.00,,,0.00,0.000000,,2013-09-05 06:42:00,
2013-09-04 23:52:00,61.0,49.0,-100.00,NE,43,3.0,10.0,64,0.00,,,0.00,0.000000,,2013-09-05 06:52:00,